Location: Proctor
(47.8934°N, 114.3048°W)
Time: 10:57:31
(UTC+00:00)

Transit 4A - Pass Details

Date: 27 June 2024
Orbit: 870 x 973 km, 66.8° (Epoch: 13 July)

Event Time Altitude Azimuth Distance (km) Brightness Sun altitude
Rises 07:25:39 0° 271° (W) 3,458 10.9 -18.7°
Reaches altitude 10° 07:28:55 10° 289° (WNW) 2,522 10.4 -18.8°
Maximum altitude 07:32:55 19° 333° (NNW) 1,979 10.4 -18.8°
Drops below altitude 10° 07:36:58 10° 17° (NNE) 2,542 11.3 -18.8°
Sets 07:40:18 0° 36° (NE) 3,496 11.8 -18.8°
